www.pogodaiklimat.ru

Погода и климат >> Архив погоды >> Алжир >> Грис


ПОГОДА в Грисе

  • Прогноз погоды в Грисе
  • Монитор погоды в Грисе

АРХИВ ПОГОДЫ в Грисе

Время (UTC), дата Ветер
(напр.,м/с)
 
Видим.   Явления Облачность Т
(С)
Тd
(С)
f
(%)
Тe
(С)
Тes
(С)
Комфортность P
(гПа)
Po
(гПа)
Тmin
(С)
Tmax
(С)
R
(мм)
R24
(мм)
S
(см)
09 18.05 З 5 15 км 9/0
[Ac lent Ci sp]
+20.1 +5.1 37 +21 +25 комфорт 1010.2 951.6
12 18.05 З 8 15 км 9/3 800 м
[Cu med, cong Ac lent Ci]
+21.5 +2.9 29 +21 +23 комфорт 1010.1 951.8
15 18.05 З 8 15 км 6/1 800 м
[Cu med, cong Ac lent Ci sp]
+23.6 -1.8 18 +22 +23 комфорт 1008.8 950.9
18 18.05 З 8 15 км 6/0
[Ac lent Ci sp]
+19.6 -7.4 15 +19 +19 1010.8 952.0 +24.1
21 18.05 З 4 10 км 4/0
[Ac lent Ci sp]
+15.1 -3.0 29 +14 +14 1012.7 952.9
00 19.05 З 3 10 км 5/0
[Ac cast Ci sp]
+10.4 -2.2 41 +9 +9 1012.7 952.0
03 19.05 ЮЗ 4 10 км 6/0
[Ac cast Ci sp]
+10.6 -0.5 46 +9 +9 1010.9 950.3
06 19.05 З 4 12 км 9/1 900 м
[Sc Ac trans]
+13.7 +4.2 53 +13 +13 1011.7 951.7 +9.4
09 19.05 З 6 12 км 10/1 800 м
[Cu med, cong Ac As]
+15.9 +5.0 48 +15 +16 1013.1 953.5
12 19.05 З 6 15 км 6/3 800 м
[Cu med, cong Ac As]
+19.2 +4.2 37 +19 +24 1012.7 953.8
15 19.05 З 7 20 км 5/5 800 м
[Cu med, cong]
+21.3 +4.7 34 +22 +24 комфорт 1011.4 952.9
18 19.05 СЗ 7 20 км 5/3 800 м
[Cu med, cong Ci sp]
+20.1 +3.7 34 +20 +20 1011.9 953.2 +22.3
21 19.05 З 2 10 км 6/0
[Ci sp]
+14.2 +3.8 50 +14 +14 1014.3 954.3
00 20.05 Ю 4 10 км 6/0
[Ci sp]
+12.9 +4.2 55 +12 +12 1014.0 953.7
03 20.05 В 4 10 км 5/0
[Ci sp]
+10.7 +2.9 59 +9 +9 1012.6 951.9
06 20.05 ЮВ 1 15 км 5/0
[Ac As Ci sp]
+11.9 +4.2 59 +12 +13 1013.1 952.7 +8.5
09 20.05 ЮЗ 2 20 км 5/0
[Ci sp]
+19.2 +1.8 31 +20 +32 1013.6 954.6
12 20.05 З 4 30 км 5/4 900 м
[Sc Ac lent Ci fib]
+25.0 +4.8 27 +24 +32 комфорт 1012.9 955.1
15 20.05 З 5 30 км 6/4 900 м
[Sc Ac lent Ci sp]
+28.4 +5.8 24 +27 +31 жарко 1010.5 953.4
18 20.05 С 5 20 км 6/3 900 м
[Sc Ac trans Ci sp]
+22.1 +10.2 47 +24 +24 комфорт 1012.0 953.7 +28.4
21 20.05 нст 1 10 км 5/3 900 м
[Sc Ac trans Ci sp]
+17.6 +6.0 46 +19 +19 1013.3 954.0
00 21.05 ЮВ 1 10 км 5/3 900 м
[Sc Ac trans]
+14.9 +6.3 56 +16 +16 1013.4 953.6
03 21.05 В 1 10 км 8/4 900 м
[Sc Ac trans]
+15.5 +5.3 51 +16 +16 1012.4 952.7
06 21.05 ЮВ 2 15 км 9/8 900 м
[Sc Ac trans]
+15.5 +7.8 60 +16 +16 1014.4 954.6 +14.5
09 21.05 СЗ 2 20 км 6/6 900 м
[Sc Ac trans]
+21.7 +5.9 36 +22 +27 комфорт 1014.6 956.0
12 21.05 СВ 4 20 км ясно +26.0 +7.8 31 +26 +41 жарко 1013.5 955.8
15 21.05 С 4 20 км 1/1 800 м
[Cu med, cong]
+27.5 +6.2 26 +27 +34 жарко 1011.8 954.5
18 21.05 С 6 20 км 1/1 800 м
[Cu hum]
+23.4 +8.0 37 +24 +25 комфорт 1012.9 954.8 +27.8
21 21.05 СВ 2 10 км 3/0
[Ac cast]
+17.0 +10.1 64 +17 +17 1014.9 955.4
00 22.05 ЮВ 2 10 км 3/0
[Ci sp]
+13.0 +7.7 70 +12 +12 1015.3 955.0
03 22.05 ЮВ 2 10 км 1/0
[Ci sp]
+11.5 +6.4 71 +10 +10 1015.4 954.7
06 22.05 штиль 0 15 км ясно +13.5 +6.4 62 +13 +15 1016.4 956.1 +9.5
09 22.05 штиль 0 20 км ясно +23.1 +6.5 34 +24 +40 комфорт 1016.4 958.0
12 22.05 С 4 20 км 1/1 800 м
[Cu med, cong]
+26.8 +2.6 21 +25 +39 комфорт 1015.9 958.2
15 22.05 С 7 20 км 1/1 800 м
[Cu med, cong]
+28.6 +3.6 20 +27 +30 жарко 1014.9 957.6
18 22.05 С 6 20 км 3/0
[Ci fib]
+25.8 +6.9 30 +26 +26 жарко 1014.6 956.8 +29.1
21 22.05 В 2 10 км ясно +19.8 +3.9 35 +21 +21 комфорт 1016.4 957.4
00 23.05 штиль 0 10 км ясно +16.0 +3.8 44 +16 +16 1016.5 956.7
03 23.05 В 2 10 км ясно +13.1 +2.5 49 +13 +13 1016.2 955.8
06 23.05 З 1 10 км ясно +13.3 +3.6 52 +14 +15 1016.8 956.4 +10.2
09 23.05 С 2 20 км ясно +24.5 +7.3 33 +25 +37 комфорт 1016.2 958.1
12 23.05 С 3 25 км ясно +29.3 +0.3 15 +27 +44 жарко 1014.7 957.6
15 23.05 СЗ 5 25 км 4/0
[Ci sp]
+31.4 -0.7 13 +28 +35 жарко 1013.3 956.6
18 23.05 СВ 6 20 км 3/0
[Ci sp]
+29.2 -0.6 14 +26 +27 жарко 1012.1 955.1 +31.9
21 23.05 С 3 10 км 3/0
[Ci sp]
+21.8 +1.4 26 +21 +21 комфорт 1013.3 954.8
00 24.05 ЮВ 3 10 км 3/0
[Ci sp]
+16.8 +0.9 34 +17 +17 1013.1 953.7
03 24.05 В 2 10 км 1/0
[Ci sp]
+13.7 +1.3 43 +13 +13 1012.5 952.5
06 24.05 Ю 1 10 км 5/0
[Ci sp]
+15.3 +2.0 41 +16 +17 1012.2 952.5 +11.2
09 24.05 З 2 20 км 6/0
[Ci sp]
+25.4 +2.6 23 +24 +36 комфорт 1010.7 953.1
12 24.05 С 5 20 км 8/0
[Ci sp]
+30.3 +0.4 15 +28 +38 жарко 1009.4 952.7
15 24.05 С 7 15 км 8/1 900 м
[Sc Ac lent Ci sp]
+27.4 +8.6 31 +27 +30 жарко 1009.6 952.4
18 24.05 С 5 15 км 9/3 900 м
[Sc Ac trans Ci sp]
+20.4 +5.6 38 +21 +21 комфорт 1010.3 951.7 +30.8
21 24.05 С 3 10 км 9/3 900 м
[Sc Ac trans Ci sp]
+18.1 +3.0 37 +18 +18 1011.0 951.9
00 25.05 С 2 10 км 6/3 900 м
[Sc Ac trans Ci sp]
+15.7 +3.5 44 +16 +16 1011.3 951.7
03 25.05 СЗ 1 8000 м 4/1 900 м
[Sc Ac trans Ci fib]
+10.6 +9.8 95 +10 +10 1011.5 950.9
06 25.05 ЮЗ 2 7000 м 9/9 600 м
[St]
+13.1 +8.9 76 +12 +12 1013.0 952.8 +9.4

 

Местоположение метеостанции Грис (Алжир): широта 35.22 долгота 0.15 высота над уровнем моря 513 м.

В архиве по умолчанию представлена погода в Грисе за последнюю неделю. Архивные данные за месяц целиком и за предыдущие месяцы, начиная с января 2011 года, Вы можете получить, выбрав интересующий диапазон дат из раскрывающегося списка и нажав кнопку "Ввод!".


*Определитесь, кто Вы:
робот инопланетянин человек

Внимание! Время в таблицах - всемирное. Для получения местного времени необходимо прибавить поправку, которая равна 1 ч.

Смотрите также архив погоды в соседних городах и на ближайших метеорологических станциях:

Погода в Саиде (Алжир) (39 км)
Погода в Релизане (Алжир) (67 км)
Погода в Оран-Тафрауи (Алжир) (67 км)
Погода в Сиди-Бель-Аббесе (Алжир) (70 км)
Погода в Мостаганеме (Алжир) (73 км)
Погода в Арзеве (Алжир) (77 км)
Погода в Оран аэропорту (Алжир) (82 км)
Погода в Оране (Алжир) (90 км)
Погода в Эль Кхейт (Алжир) (119 км)
Погода в Тиарете (Алжир) (121 км)

Пояснения к столбцам:

Ветер - указаны скорость ветра в м/с - средняя за 10 мин, порывы в срок и между сроками (в фигурных скобках) и направление, откуда дует ветер: С - северный, СВ - северо-восточный, В - восточный, ЮВ - юго-восточный, Ю - южный, ЮЗ - юго-западный, З - западный, СЗ - северо-западный.
Видимость - горизонтальная дальность видимости в метрах или километрах. При видимости от 1 до 10 км при отсутствии осадков обычно наблюдается дымка, при ухудшении видимости до 1 км и менее - туман. В сухую погоду видимость может ухудшаться дымом, пылью или мглою.
Явления - указаны атмосферные явления, наблюдавшиеся в срок или в последний час перед сроком; фигурными скобками обозначены явления, наблюдавшиеся между сроками (за 1-3 часа до срока); квадратными скобками обозначены град или гололедные отложения с указанием их диаметра в мм.
Облачность - указаны через наклонную черту общая и нижняя облачность в баллах и высота нижней границы облаков в метрах; квадратными скобками обозначены формы облаков: Ci - перистые, Cs - перисто-слоистые, Cc - перисто-кучевые, Ac - высококучевые, As - высокослоистые, Sc - слоисто-кучевые, Ns - слоисто-дождевые, Cu - кучевые, Cb - кучево-дождевые. Подробнее классификацию облаков см. в Атласе облаков (PDF).
T - Температура воздуха - температура, измеренная на высоте 2 м над землей.
Td - Температура точки росы - температура, при понижении до которой содержащийся в воздухе водяной пар достигнет насыщения.
f - Относительная влажность воздуха - влажноcть воздуха, измеренная на высоте 2 м над землей.
Te - Эффективная температура - температура, которую ощущает одетый по сезону человек в тени. Характеристика душности погоды. При расчете учитывается влияние влажности воздуха и скорости ветра на теплоощущения человека.
Tes - Эффективная температура на солнце - температура, которую ощущает человек, с поправкой на солнечный нагрев. Характеристика знойности погоды. Зависит от высоты солнца над горизонтом, облачности и скорости ветра. Ночью, в пасмурную погоду, а также при ветре 12 м/с и более поправка равна нулю.
P - Атмосферное давление - приведенное к уровню моря атмосферное давление.
Po - Атмосферное давление - измеренное на уровне метеостанции атмосферное давление.
Tmin - Минимальная температура - минимум температуры воздуха на высоте 2 м над землей.
Tmax - Максимальная температура - максимум температуры воздуха на высоте 2 м над землей.
R - Количество осадков - Количество выпавших осадков за период времени, мм. При наведении курсора мыши на число - период времени, за который выпало указанное количество осадков.
R24 - Количество осадков - Количество выпавших осадков за 24 часа, мм.
S - Снежный покров - Высота снежного покрова, см. При наведении курсора мыши на число - состояние снежного покрова и степень покрытия местности в баллах.